Weather History for Wildwood, NJ

Change the Weather History Date:

Friday, June 28, 2013

  Actual Average Record
Temperature  
Mean Temperature 79 °F -  
Max Temperature 87 °F 80 °F 95 °F (2010)
Min Temperature 71 °F 65 °F 57 °F (2014)
Cooling Degree Days 14    
Growing Degree Days 29 (Base 50)    
Moisture  
Dew Point 70 °F    
Average Humidity 78    
Maximum Humidity 94    
Minimum Humidity 58    
Precipitation  
Precipitation 0.11 in - - ()
Sea Level Pressure  
Sea Level Pressure 29.58 in    
Wind  
Wind Speed 9 mph (SSW)    
Max Wind Speed 14 mph    
Max Gust Speed 22 mph    
Visibility 9 miles    
Events Thunderstorm    
Averages and records for this station are not official NWS values.
T = Trace of Precipitation, MM = Missing Value Source: NWS Daily Summary

Daily Weather History Graph

Daily Weather History Graph

Search for Another Location

Airport:

Trip Planner

Search our weather history database for the weather conditions in past years. The results will help you decide how hot, cold, wet, or windy it might be!

Date:

Astronomy

Jun. 28, 2013 Rise Set
Actual Time 5:36 AM EDT 8:29 PM EDT
Civil Twilight 5:04 AM EDT 9:01 PM EDT
Nautical Twilight 4:23 AM EDT 9:41 PM EDT
Astronomical Twilight 3:37 AM EDT 10:28 PM EDT
Moon No Moon Rise 11:38 AM EDT (6/28)
Length of Visible Light 15h 57m
Length of Day
14h 53m
Waning Gibbous, 66% of the Moon is Illuminated
Jun 28
Waning Gibbous
Jun 30
Last Quarter
Jul 8
New
Jul 15
First Quarter
Jul 22
Full

Hourly Weather History & Observations

Time (EDT) Temp. Heat Index Dew Point Humidity Pressure Visibility Wind Dir Wind Speed Gust Speed Precip Events Conditions
12:15 AM 75.2 °F - 69.8 °F 83% 29.65 in 10.0 mi SSW 8.1 mph - N/A   Scattered Clouds
12:35 AM 75.2 °F - 69.8 °F 83% 29.65 in 10.0 mi South 6.9 mph - N/A   Mostly Cloudy
12:55 AM 75.2 °F - 69.8 °F 83% 29.65 in 10.0 mi South 10.4 mph - N/A   Mostly Cloudy
1:15 AM 73.4 °F - 68.0 °F 83% 29.64 in 10.0 mi South 9.2 mph - N/A   Mostly Cloudy
1:35 AM 73.4 °F - 68.0 °F 83% 29.63 in 10.0 mi South 8.1 mph - N/A   Partly Cloudy
1:55 AM 71.6 °F - 68.0 °F 88% 29.63 in 10.0 mi SSW 6.9 mph - N/A   Clear
2:35 AM 73.4 °F - 69.8 °F 88% 29.61 in 10.0 mi SSW 9.2 mph - N/A   Mostly Cloudy
2:55 AM 73.4 °F - 69.8 °F 88% 29.61 in 10.0 mi South 9.2 mph - N/A   Overcast
3:15 AM 73.4 °F - 69.8 °F 88% 29.60 in 10.0 mi South 8.1 mph - N/A   Mostly Cloudy
3:35 AM 71.6 °F - 68.0 °F 88% 29.59 in 10.0 mi South 8.1 mph - N/A   Clear
3:55 AM 71.6 °F - 68.0 °F 88% 29.59 in 7.0 mi South 9.2 mph - N/A   Clear
4:15 AM 71.6 °F - 68.0 °F 88% 29.59 in 7.0 mi South 8.1 mph - N/A   Scattered Clouds
4:35 AM 71.6 °F - 68.0 °F 88% 29.58 in 6.0 mi South 8.1 mph - N/A   Partly Cloudy
4:55 AM 71.6 °F - 69.8 °F 94% 29.58 in 5.0 mi SSW 9.2 mph - N/A   Clear
5:15 AM 71.6 °F - 69.8 °F 94% 29.59 in 7.0 mi SSW 10.4 mph - N/A   Clear
5:35 AM 73.4 °F - 69.8 °F 88% 29.59 in 9.0 mi SSW 10.4 mph - N/A   Clear
5:55 AM 73.4 °F - 69.8 °F 88% 29.59 in 10.0 mi SW 9.2 mph - N/A   Scattered Clouds
6:15 AM 73.4 °F - 69.8 °F 88% 29.60 in 10.0 mi SW 8.1 mph - N/A   Partly Cloudy
6:35 AM 73.4 °F - 71.6 °F 94% 29.60 in 9.0 mi SW 9.2 mph - N/A   Clear
6:55 AM 75.2 °F - 71.6 °F 89% 29.61 in 10.0 mi SW 10.4 mph 16.1 mph N/A   Clear
7:15 AM 75.2 °F - 71.6 °F 89% 29.61 in 10.0 mi SW 12.7 mph - N/A   Clear
7:35 AM 75.2 °F - 71.6 °F 89% 29.61 in 10.0 mi SW 11.5 mph - N/A   Clear
7:55 AM 77.0 °F - 71.6 °F 83% 29.61 in 10.0 mi SW 10.4 mph 17.3 mph N/A   Clear
8:15 AM 78.8 °F - 71.6 °F 78% 29.61 in 10.0 mi SW 11.5 mph - N/A   Clear
8:35 AM 78.8 °F - 71.6 °F 78% 29.60 in 10.0 mi SW 12.7 mph - N/A   Clear
8:55 AM 78.8 °F - 71.6 °F 78% 29.59 in 10.0 mi SW 10.4 mph - N/A   Clear
9:15 AM 80.6 °F 84.6 °F 71.6 °F 74% 29.59 in 10.0 mi SW 12.7 mph 17.3 mph N/A   Clear
9:35 AM 80.6 °F 84.6 °F 71.6 °F 74% 29.58 in 10.0 mi SW 11.5 mph - N/A   Clear
9:55 AM 80.6 °F 84.6 °F 71.6 °F 74% 29.58 in 10.0 mi SW 13.8 mph - N/A   Clear
10:15 AM 82.4 °F 87.2 °F 71.6 °F 70% 29.58 in 10.0 mi SW 12.7 mph 20.7 mph N/A   Clear
10:35 AM 82.4 °F 87.2 °F 71.6 °F 70% 29.58 in 10.0 mi SSW 12.7 mph 16.1 mph N/A   Clear
10:55 AM 82.4 °F 87.2 °F 71.6 °F 70% 29.59 in 10.0 mi SSW 12.7 mph - N/A   Partly Cloudy
11:15 AM 84.2 °F 89.6 °F 71.6 °F 66% 29.59 in 10.0 mi SW 13.8 mph 18.4 mph N/A   Partly Cloudy
11:35 AM 82.4 °F 87.2 °F 71.6 °F 70% 29.60 in 10.0 mi SSW 13.8 mph - N/A   Mostly Cloudy
11:55 AM 84.2 °F 89.6 °F 71.6 °F 66% 29.60 in 10.0 mi SSW 9.2 mph - N/A   Mostly Cloudy
12:15 PM 84.2 °F 89.6 °F 71.6 °F 66% 29.60 in 10.0 mi South 13.8 mph - N/A   Mostly Cloudy
12:35 PM 84.2 °F 89.6 °F 71.6 °F 66% 29.59 in 10.0 mi South 9.2 mph - N/A   Partly Cloudy
12:55 PM 84.2 °F 89.6 °F 71.6 °F 66% 29.59 in 10.0 mi South 11.5 mph - N/A   Clear
1:15 PM 84.2 °F 89.6 °F 71.6 °F 66% 29.58 in 10.0 mi South 11.5 mph - N/A   Clear
1:35 PM 86.0 °F 91.8 °F 71.6 °F 62% 29.57 in 10.0 mi SSE 10.4 mph - N/A   Clear
1:55 PM 87.8 °F 95.6 °F 73.4 °F 62% 29.57 in 10.0 mi South 11.5 mph - N/A   Clear
2:15 PM 87.8 °F 93.8 °F 71.6 °F 58% 29.57 in 10.0 mi SSE 11.5 mph - N/A   Clear
2:35 PM 87.8 °F 93.8 °F 71.6 °F 58% 29.56 in 10.0 mi South 11.5 mph - N/A   Clear
2:55 PM 87.8 °F 93.8 °F 71.6 °F 58% 29.55 in 10.0 mi South 11.5 mph - N/A   Clear
3:15 PM 87.8 °F 93.8 °F 71.6 °F 58% 29.55 in 10.0 mi South 11.5 mph - N/A   Clear
3:35 PM 87.8 °F 93.8 °F 71.6 °F 58% 29.54 in 10.0 mi South 11.5 mph - N/A   Clear
3:55 PM 87.8 °F 93.8 °F 71.6 °F 58% 29.53 in 10.0 mi South 12.7 mph - N/A   Clear
4:15 PM 86.0 °F 91.8 °F 71.6 °F 62% 29.53 in 10.0 mi South 11.5 mph - N/A   Clear
4:35 PM 86.0 °F 91.8 °F 71.6 °F 62% 29.53 in 10.0 mi SSE 10.4 mph - N/A   Clear
4:55 PM 82.4 °F 86.3 °F 69.8 °F 66% 29.54 in 10.0 mi South 8.1 mph - N/A   Clear
5:15 PM 80.6 °F 83.9 °F 69.8 °F 70% 29.53 in 10.0 mi South 10.4 mph - N/A   Clear
5:35 PM 80.6 °F 83.9 °F 69.8 °F 70% 29.53 in 10.0 mi South 10.4 mph - N/A   Clear
5:55 PM 80.6 °F 83.9 °F 69.8 °F 70% 29.52 in 10.0 mi South 9.2 mph - N/A   Clear
6:15 PM 78.8 °F - 69.8 °F 74% 29.53 in 10.0 mi South 8.1 mph - N/A   Clear
6:35 PM 77.0 °F - 69.8 °F 78% 29.54 in 10.0 mi South 9.2 mph - N/A   Clear
6:55 PM 78.8 °F - 69.8 °F 74% 29.54 in 10.0 mi South 9.2 mph - N/A   Clear
7:15 PM 77.0 °F - 69.8 °F 78% 29.52 in 10.0 mi South 11.5 mph - N/A   Clear
7:35 PM 75.2 °F - 69.8 °F 83% 29.52 in 10.0 mi South 9.2 mph - N/A   Clear
7:55 PM 75.2 °F - 69.8 °F 83% 29.53 in 10.0 mi SSW 8.1 mph - N/A   Clear
8:15 PM 75.2 °F - 69.8 °F 83% 29.55 in 10.0 mi SSW 5.8 mph - N/A   Mostly Cloudy
8:35 PM 77.0 °F - 69.8 °F 78% 29.55 in 10.0 mi Calm Calm - N/A   Overcast
8:55 PM 75.2 °F - 69.8 °F 83% 29.58 in 10.0 mi West 3.5 mph - N/A   Overcast
9:15 PM 78.8 °F - 71.6 °F 78% 29.56 in 10.0 mi SSE 3.5 mph - N/A   Overcast
9:35 PM 78.8 °F - 71.6 °F 78% 29.59 in 10.0 mi West 6.9 mph - N/A   Overcast
9:55 PM 75.2 °F - 69.8 °F 83% 29.60 in 8.0 mi West 12.7 mph 21.9 mph 0.01 in Thunderstorm Overcast
10:15 PM 73.4 °F - 68.0 °F 83% 29.58 in 5.0 mi WNW 6.9 mph - 0.04 in   Overcast
10:35 PM 71.6 °F - 69.8 °F 94% 29.58 in 5.0 mi WNW 3.5 mph - 0.06 in   Overcast
10:55 PM 71.6 °F - 69.8 °F 94% 29.58 in 5.0 mi Calm Calm - 0.08 in   Mostly Cloudy
11:15 PM 71.6 °F - 69.8 °F 94% 29.58 in 8.0 mi West 3.5 mph - N/A   Mostly Cloudy
11:35 PM 71.6 °F - 68.0 °F 88% 29.57 in 10.0 mi SSW 10.4 mph - N/A   Overcast
11:55 PM 71.6 °F - 68.0 °F 88% 29.55 in 8.0 mi South 8.1 mph - 0.02 in   Mostly Cloudy